When you browse on this site, cookies collect data to enhance your experience and personalize the content and advertising you see.
Visit our Privacy Policy to learn more. By continuing to use the site, you agree to this use of cookies and data.
  • en Suisse
  • Liste des pays
  • À 7 jours
  • Température de l'eau
  • Carte météo
  • Widgets météo
  • user-avatar
    Se connecter

    Météo par heure à Kandi

    Ce jour, 26 Février, Mercredi

    Heure Température Précipitation Vent Pression Humidité
    00:00 +24°C° 0 mm 2 m/s 737 mmHg 19%
    01:00 +23°C° 0 mm 2 m/s 736 mmHg 19%
    02:00 +23°C° 0 mm 2 m/s 736 mmHg 20%
    03:00 +21°C° 0 mm 2 m/s 735 mmHg 20%
    04:00 +21°C° 0 mm 2 m/s 736 mmHg 20%
    05:00 +20°C° 0 mm 2 m/s 736 mmHg 20%
    06:00 +20°C° 0 mm 2 m/s 736 mmHg 20%
    07:00 +24°C° 0 mm 2 m/s 737 mmHg 17%
    08:00 +27°C° 0 mm 2 m/s 737 mmHg 14%
    09:00 +29°C° 0 mm 3 m/s 738 mmHg 11%
    10:00 +33°C° 0 mm 3 m/s 737 mmHg 10%
    11:00 +36°C° 0 mm 2 m/s 737 mmHg 9%
    12:00 +39°C° 0 mm 2 m/s 736 mmHg 8%
    13:00 +40°C° 0 mm 2 m/s 735 mmHg 7%
    14:00 +42°C° 0 mm 1 m/s 735 mmHg 7%
    15:00 +40°C° 0 mm 0 m/s 734 mmHg 6%
    16:00 +40°C° 0 mm 1 m/s 734 mmHg 8%
    17:00 +36°C° 0 mm 1 m/s 734 mmHg 9%
    18:00 +33°C° 0 mm 1 m/s 734 mmHg 10%
    19:00 +32°C° 0 mm 1 m/s 734 mmHg 11%
    20:00 +30°C° 0 mm 2 m/s 735 mmHg 12%
    21:00 +29°C° 0 mm 2 m/s 736 mmHg 13%
    22:00 +28°C° 0 mm 2 m/s 736 mmHg 14%
    23:00 +27°C° 0 mm 1 m/s 736 mmHg 15%

    Demain, 27 Février, Jeudi

    Heure Température Précipitation Vent Pression Humidité
    00:00 +26°C° 0 mm 1 m/s 736 mmHg 16%
    01:00 +25°C° 0 mm 1 m/s 735 mmHg 16%
    02:00 +24°C° 0 mm 1 m/s 735 mmHg 16%
    03:00 +24°C° 0 mm 1 m/s 735 mmHg 16%
    04:00 +23°C° 0 mm 1 m/s 735 mmHg 17%
    05:00 +23°C° 0 mm 1 m/s 736 mmHg 17%
    06:00 +22°C° 0 mm 1 m/s 736 mmHg 17%
    07:00 +25°C° 0 mm 1 m/s 737 mmHg 15%
    08:00 +28°C° 0 mm 2 m/s 737 mmHg 13%
    09:00 +32°C° 0 mm 2 m/s 738 mmHg 11%
    10:00 +36°C° 0 mm 2 m/s 738 mmHg 10%
    11:00 +38°C° 0 mm 2 m/s 737 mmHg 9%
    12:00 +41°C° 0 mm 2 m/s 736 mmHg 7%
    13:00 +43°C° 0 mm 1 m/s 736 mmHg 7%
    14:00 +44°C° 0 mm 1 m/s 735 mmHg 7%
    15:00 +42°C° 0 mm 0 m/s 735 mmHg 6%
    16:00 +39°C° 0 mm 0 m/s 734 mmHg 8%
    17:00 +36°C° 0 mm 0 m/s 734 mmHg 9%
    18:00 +35°C° 0 mm 1 m/s 734 mmHg 11%
    19:00 +33°C° 0 mm 1 m/s 735 mmHg 11%
    20:00 +32°C° 0 mm 1 m/s 735 mmHg 12%
    21:00 +31°C° 0 mm 1 m/s 736 mmHg 13%
    22:00 +30°C° 0 mm 1 m/s 736 mmHg 14%
    23:00 +29°C° 0 mm 1 m/s 736 mmHg 15%

    Après-demain, 28 Février, Vendredi

    Heure Température Précipitation Vent Pression Humidité
    00:00 +28°C° 0 mm 1 m/s 735 mmHg 16%
    01:00 +27°C° 0 mm 1 m/s 735 mmHg 16%
    02:00 +26°C° 0 mm 1 m/s 735 mmHg 17%
    03:00 +23°C° 0 mm 0 m/s 735 mmHg 18%
    04:00 +25°C° 0 mm 1 m/s 735 mmHg 18%
    05:00 +24°C° 0 mm 1 m/s 736 mmHg 19%
    06:00 +24°C° 0 mm 1 m/s 736 mmHg 19%
    07:00 +27°C° 0 mm 1 m/s 737 mmHg 16%
    08:00 +31°C° 0 mm 1 m/s 738 mmHg 13%
    09:00 +35°C° 0 mm 2 m/s 738 mmHg 10%
    10:00 +37°C° 0 mm 2 m/s 738 mmHg 9%
    11:00 +40°C° 0 mm 2 m/s 737 mmHg 8%
    12:00 +42°C° 0 mm 2 m/s 737 mmHg 7%
    13:00 +43°C° 0 mm 2 m/s 736 mmHg 7%
    14:00 +44°C° 0 mm 1 m/s 735 mmHg 7%
    15:00 +44°C° 0 mm 1 m/s 734 mmHg 6%
    16:00 +42°C° 0 mm 1 m/s 734 mmHg 8%
    17:00 +39°C° 0 mm 1 m/s 734 mmHg 9%
    18:00 +36°C° 0 mm 1 m/s 734 mmHg 10%
    19:00 +34°C° 0 mm 1 m/s 735 mmHg 11%
    20:00 +33°C° 0 mm 1 m/s 735 mmHg 12%
    21:00 +31°C° 0 mm 1 m/s 736 mmHg 12%
    22:00 +30°C° 0 mm 1 m/s 736 mmHg 13%
    23:00 +30°C° 0 mm 1 m/s 736 mmHg 14%

    29 Février, Samedi

    Heure Température Précipitation Vent Pression Humidité
    00:00 +29°C° 0 mm 1 m/s 736 mmHg 15%
    01:00 +28°C° 0 mm 1 m/s 735 mmHg 16%
    02:00 +27°C° 0 mm 1 m/s 735 mmHg 16%
    03:00 +26°C° 0 mm 1 m/s 735 mmHg 17%
    04:00 +26°C° 0 mm 1 m/s 735 mmHg 17%
    05:00 +25°C° 0 mm 1 m/s 735 mmHg 18%
    06:00 +24°C° 0 mm 1 m/s 736 mmHg 19%
    07:00 +28°C° 0 mm 1 m/s 736 mmHg 16%
    08:00 +31°C° 0 mm 2 m/s 737 mmHg 12%
    09:00 +35°C° 0 mm 2 m/s 738 mmHg 9%
    10:00 +38°C° 0 mm 3 m/s 737 mmHg 8%
    11:00 +40°C° 0 mm 3 m/s 737 mmHg 7%
    12:00 +44°C° 0 mm 3 m/s 736 mmHg 6%
    13:00 +44°C° 0 mm 3 m/s 735 mmHg 6%
    14:00 +45°C° 0 mm 3 m/s 734 mmHg 6%
    15:00 +45°C° 0 mm 2 m/s 734 mmHg 6%
    16:00 +42°C° 0 mm 2 m/s 734 mmHg 7%
    17:00 +39°C° 0 mm 1 m/s 734 mmHg 8%
    18:00 +36°C° 0 mm 1 m/s 734 mmHg 9%
    19:00 +34°C° 0 mm 1 m/s 734 mmHg 10%
    20:00 +33°C° 0 mm 1 m/s 735 mmHg 11%
    21:00 +31°C° 0 mm 1 m/s 735 mmHg 12%
    22:00 +30°C° 0 mm 1 m/s 735 mmHg 12%
    23:00 +30°C° 0 mm 1 m/s 735 mmHg 13%

    1 Mars, Dimanche

    Heure Température Précipitation Vent Pression Humidité
    00:00 +29°C° 0 mm 1 m/s 735 mmHg 13%
    01:00 +28°C° 0 mm 1 m/s 734 mmHg 13%
    02:00 +27°C° 0 mm 1 m/s 734 mmHg 13%
    03:00 +27°C° 0 mm 1 m/s 734 mmHg 13%
    04:00 +26°C° 0 mm 1 m/s 734 mmHg 15%
    05:00 +25°C° 0 mm 1 m/s 735 mmHg 18%
    06:00 +25°C° 0 mm 1 m/s 735 mmHg 20%
    07:00 +28°C° 0 mm 1 m/s 736 mmHg 22%
    08:00 +31°C° 0 mm 1 m/s 737 mmHg 24%
    09:00 +35°C° 0 mm 1 m/s 737 mmHg 25%
    10:00 +37°C° 0 mm 1 m/s 737 mmHg 19%
    11:00 +41°C° 0 mm 2 m/s 736 mmHg 13%
    12:00 +45°C° 0 mm 2 m/s 736 mmHg 7%
    13:00 +45°C° 0 mm 2 m/s 735 mmHg 6%
    14:00 +46°C° 0 mm 2 m/s 734 mmHg 6%
    15:00 +45°C° 0 mm 1 m/s 733 mmHg 5%
    16:00 +42°C° 0 mm 1 m/s 733 mmHg 7%
    17:00 +40°C° 0 mm 1 m/s 733 mmHg 8%
    18:00 +36°C° 0 mm 1 m/s 733 mmHg 9%
    19:00 +34°C° 0 mm 1 m/s 734 mmHg 9%
    20:00 +33°C° 0 mm 1 m/s 734 mmHg 10%
    21:00 +31°C° 0 mm 1 m/s 735 mmHg 11%
    22:00 +31°C° 0 mm 1 m/s 735 mmHg 12%
    23:00 +30°C° 0 mm 1 m/s 735 mmHg 13%

    2 Mars, Lundi

    Heure Température Précipitation Vent Pression Humidité
    00:00 +29°C° 0 mm 1 m/s 735 mmHg 14%
    01:00 +28°C° 0 mm 1 m/s 735 mmHg 16%
    02:00 +28°C° 0 mm 1 m/s 735 mmHg 18%
    03:00 +27°C° 0 mm 1 m/s 735 mmHg 20%
    04:00 +27°C° 0 mm 1 m/s 735 mmHg 31%
    05:00 +26°C° 0 mm 1 m/s 736 mmHg 41%
    06:00 +25°C° 0 mm 1 m/s 736 mmHg 52%
    07:00 +28°C° 0 mm 2 m/s 737 mmHg 50%
    08:00 +31°C° 0 mm 2 m/s 737 mmHg 48%
    09:00 +34°C° 0 mm 2 m/s 738 mmHg 47%
    10:00 +39°C° 0 mm 2 m/s 738 mmHg 36%
    11:00 +43°C° 0 mm 1 m/s 737 mmHg 25%
    12:00 +44°C° 0 mm 0 m/s 737 mmHg 14%
    13:00 +44°C° 0 mm 0 m/s 736 mmHg 13%
    14:00 +46°C° 0 mm 1 m/s 735 mmHg 12%
    15:00 +46°C° 0 mm 1 m/s 733 mmHg 11%
    16:00 +43°C° 0 mm 1 m/s 733 mmHg 13%
    17:00 +40°C° 0 mm 1 m/s 733 mmHg 15%
    18:00 +37°C° 0 mm 1 m/s 733 mmHg 16%
    19:00 +36°C° 0 mm 1 m/s 734 mmHg 18%
    20:00 +35°C° 0 mm 1 m/s 735 mmHg 19%
    21:00 +32°C° 0 mm 0 m/s 735 mmHg 21%
    22:00 +34°C° 0 mm 1 m/s 736 mmHg 22%
    23:00 +33°C° 0 mm 1 m/s 736 mmHg 23%
    Voir plus